Content
SEND FEEDBACK

Daily
Averages
Monthly
Summary
French Polynesia

PAPEETE, FRENCH POLYNESIA


Home > Oceania > French Polynesia
Elevation: 7 feet     Latitude: 17 33S     Longitude: 149 36W

WEATHER
 
SELECT A DAY
Number of Records: 217,724;   Date Range: 6/30/96 - 12/24/14
 
SHARE

PRINT THIS DATA

[ ← Previous Day ]
WEATHER ALMANAC - JUNE 12, 2013
[ Next Day → ]
[ °C ]   °F
Weather ElementAverageHighLow
Temperature79.2 °F86 °F (2:00 pm)73.4 °F (4:00 am)
Dewpoint70.1 °F72 °F (11:00 am)68 °F (2:30 am)
Humidity73.2 %89 % (1:00 am)54 % (2:00 pm)
Barometer29.92 in29.98 in (9:00 am)29.86 in (3:30 pm)
Wind Speed6.8 mph22.4 mph (5:00 pm)
Wind Gust20.7 mph (12:00 pm)
Weather ElementAverage
Visibility7.3 mi
Wind DirectionESE (95.8 °)

Weather ElementTotal
Precipitation---
Cooling Degree Days14.7 (Base 65)
Growing Degree Days29.7 (Base 50)
Averaged from 57 records on June 12, 2013
WEATHER CONDITIONS BREAKOUT
WIND DIRECTION BREAKOUT
WEATHER BY HOUR - JUNE 12, 2013
[ °C ]   °F
Local TimeTemperatureDewpointHumidityBarometerVisibilityWind DirectionWind SpeedGust SpeedPrecipitationEventsConditions
12:30 AM75.2 °F69.8 °F83 %29.92 in6.2 miEast (90°)4.6 mphScattered Clouds
12:43 AM75.2 °F69.8 °F83 %29.92 in6.2 miEast (90°)2.3 mphScattered Clouds
1:00 AM75.2 °F71.6 °F89 %29.95 in6.2 miESE (110°)3.5 mphMostly Cloudy
1:30 AM75.2 °F69.8 °F83 %29.92 in6.2 miENE (70°)5.8 mphMostly Cloudy
2:00 AM76.0 °F69.0 °F74 %29.92 in12.0 miNE (50°)5.8 mphRainLight Rain
2:00 AM75.2 °F69.8 °F83 %29.92 in6.2 miNE (50°)5.8 mphRainLight Rain
2:30 AM75.2 °F68.0 °F78 %29.89 in6.2 miSouth (170°)5.8 mphMostly Cloudy
3:00 AM75.2 °F68.0 °F78 %29.89 in6.2 miVariable1.2 mphMostly Cloudy
3:30 AM75.2 °F68.0 °F78 %29.89 in6.2 miSE (140°)3.5 mph
4:00 AM73.4 °F69.8 °F88 %29.89 in6.2 miEast (80°)1.2 mphMostly Cloudy
4:30 AM73.4 °F69.8 °F88 %29.89 in6.2 miESE (110°)2.3 mphPartly Cloudy
5:00 AM74.0 °F69.0 °F81 %29.90 in34.0 miEast (90°)3.5 mphClear
5:00 AM73.4 °F69.8 °F88 %29.89 in6.2 miEast (90°)3.5 mphMostly Cloudy
5:30 AM73.4 °F69.8 °F88 %29.89 in6.2 miSSE (160°)4.6 mphScattered Clouds
6:00 AM75.2 °F69.8 °F83 %29.89 in6.2 miEast (90°)4.6 mphPartly Cloudy
6:30 AM75.2 °F68.0 °F78 %29.89 in6.2 miENE (70°)4.6 mphPartly Cloudy
7:00 AM75.2 °F68.0 °F78 %29.92 in6.2 miSouth (180°)6.9 mphPartly Cloudy
7:30 AM77.0 °F69.8 °F78 %29.92 in6.2 miSouth (180°)5.8 mphScattered Clouds
8:00 AM78.0 °F71.0 °F73 %29.95 in12.0 miSSW (210°)3.5 mphMostly Cloudy
8:00 AM78.8 °F71.6 °F78 %29.95 in6.2 miSSW (210°)3.5 mphScattered Clouds
8:30 AM80.6 °F71.6 °F74 %29.95 in6.2 miVariable6.9 mphScattered Clouds
9:00 AM80.6 °F69.8 °F70 %29.98 in6.2 miSouth (190°)6.9 mphMostly Cloudy
9:30 AM80.6 °F71.6 °F74 %29.95 in6.2 miVariable2.3 mphScattered Clouds
10:00 AM82.4 °F71.6 °F70 %29.95 in6.2 miSW (230°)5.8 mphScattered Clouds
10:30 AM82.4 °F71.6 °F70 %29.95 in6.2 miWSW (250°)3.5 mphMostly Cloudy
11:00 AM82.0 °F72.0 °F64 %29.95 in12.0 miSW (230°)3.5 mphMostly Cloudy
11:00 AM82.4 °F71.6 °F70 %29.95 in6.2 miVariable3.5 mphMostly Cloudy
11:08 AM82.4 °F71.6 °F70 %29.95 in6.2 miSSW (210°)4.6 mphMostly Cloudy
11:30 AM82.4 °F71.6 °F70 %29.92 in6.2 miWest (270°)5.8 mphMostly Cloudy
12:00 PM84.2 °F71.6 °F66 %29.92 in6.2 miVariable8.1 mph20.7 mphMostly Cloudy
12:30 PM84.2 °F71.6 °F66 %29.92 in6.2 miVariable6.9 mph19.6 mphScattered Clouds
1:00 PM84.2 °F71.6 °F66 %29.89 in6.2 miEast (100°)10.4 mphScattered Clouds
1:30 PM84.2 °F71.6 °F66 %29.89 in6.2 miENE (60°)19.6 mphScattered Clouds
2:00 PM86.0 °F72.0 °F54 %29.89 in12.0 miENE (60°)15.0 mphPartly Cloudy
2:00 PM86.0 °F71.6 °F62 %29.89 in6.2 miENE (60°)15.0 mphPartly Cloudy
2:30 PM84.2 °F71.6 °F66 %29.89 in6.2 miENE (60°)17.3 mphPartly Cloudy
3:00 PM84.2 °F71.6 °F66 %29.89 in6.2 miENE (60°)15.0 mphScattered Clouds
3:30 PM84.2 °F71.6 °F66 %29.86 in6.2 miENE (60°)16.1 mphScattered Clouds
4:00 PM84.2 °F69.8 °F62 %29.89 in6.2 miENE (60°)13.8 mphScattered Clouds
4:30 PM84.2 °F68.0 °F58 %29.89 in6.2 miENE (70°)12.7 mphScattered Clouds
5:00 PM83.0 °F69.0 °F55 %29.89 in9.0 miENE (70°)22.4 mphPartly Cloudy
5:00 PM82.4 °F69.8 °F66 %29.89 in6.2 miENE (70°)11.5 mphScattered Clouds
5:30 PM82.4 °F69.8 °F66 %29.92 in6.2 miVariable4.6 mphScattered Clouds
6:00 PM80.6 °F69.8 °F70 %29.92 in6.2 miVariable2.3 mphPartly Cloudy
6:30 PM80.6 °F69.8 °F70 %29.92 in6.2 miEast (80°)8.1 mphPartly Cloudy
7:00 PM80.6 °F69.8 °F70 %29.92 in6.2 miEast (90°)5.8 mphPartly Cloudy
7:30 PM78.8 °F69.8 °F74 %29.92 in6.2 miENE (70°)5.8 mphPartly Cloudy
8:00 PM79.0 °F68.0 °F62 %29.94 in12.0 miEast (90°)6.9 mphScattered Clouds
8:00 PM78.8 °F68.0 °F69 %29.92 in6.2 miEast (90°)6.9 mphPartly Cloudy
8:30 PM78.8 °F69.8 °F74 %29.95 in6.2 miESE (110°)3.5 mphPartly Cloudy
9:00 PM78.8 °F69.8 °F74 %29.95 in6.2 miENE (60°)10.4 mphPartly Cloudy
9:30 PM78.8 °F69.8 °F74 %29.95 in6.2 miEast (100°)6.9 mphPartly Cloudy
10:00 PM77.0 °F69.8 °F78 %29.95 in6.2 miNE (50°)5.8 mphPartly Cloudy
10:30 PM77.0 °F69.8 °F78 %29.95 in6.2 miVariable2.3 mphPartly Cloudy
11:00 PM77.0 °F70.0 °F74 %29.96 in12.0 miSE (140°)2.3 mphScattered Clouds
11:00 PM77.0 °F69.8 °F78 %29.95 in6.2 miSE (140°)2.3 mphPartly Cloudy
11:30 PM75.2 °F69.8 °F83 %29.95 in6.2 miEast (90°)3.5 mphPartly Cloudy
Hourly data recorded from NTAA, located miles away from Papeete, French Polynesia







STORIES FROM OUR PARTNERS